Location: Unspecified
(47.9110°N, 14.3980°E)
Time: 04:55:28
(UTC+00:00)

CENTAUR R/B - Pass Details

Date: 06 August 2020
Orbit: 754 x 1434 km, 63.5° (Epoch: 17 September)

Event Time Altitude Azimuth Distance (km) Brightness Sun altitude
Exits shadow 20:53:14 29° 120° (ESE) 1,678 3.2 -19.0°
Maximum altitude 20:53:44 29° 111° (ESE) 1,680 3.3 -19.0°
Drops below altitude 10° 20:59:24 10° 55° (NE) 2,910 5.0 -19.6°
Sets 21:02:37 0° 45° (NE) 3,991 5.9 -19.9°
